Flag for U.S.A. Weather past 2 weeks in Chicago, Illinois, U.S.A.

Now
81 °F

Broken clouds.


Feels Like: 83 °F
Forecast: 70 / 83 °F
Wind: 12 mph from Southeast

Location: Chicago Midway Airport

Current Time: Jul 6, 2015 at 5:55:37 PM

Latest Report: Jul 6, 2015 at 4:53 PM


Visibility: 10 mi

Pressure: 29.85 "Hg

Humidity: 62%

Dew point: 67 °F

Location of ChicagoLocation

Historic Weather in Chicago — Graph

°F

Chicago temperature yesterday

Maximum temperature yesterday: 85 °F (at 4:53 PM)
Minimum temperature yesterday: 66 °F (at 5:53 AM)
Average temperature yesterday: 77 °F

Past Weeks' High & Low Weather Summary

 TemperatureHumidityPressure
High88 °F (Jul 6, 1:53 PM)94% (Jun 26, 4:53 PM)30.14 "Hg (Jun 26, 4:53 PM)
Low56 °F (Jul 2, 3:53 AM)34% (Jun 27, 6:53 PM)29.67 "Hg (Jun 22, 5:53 PM)
Average71 °F69%29.93 "Hg
* Reported Jun 21 3:53 PM — Jul 6 3:53 PM, Chicago, Weather by CustomWeather, © 2015

Note: Actual official high and low records may vary slightly from our data, if they occured in-between our weather recording intervals... More about our weather records

Advertising

Chicago weather history for previous 24 hours

 ConditionsComfort  
Time TempWeatherWind HumidityBarometerVisibility
3:53 PM
Mon, Jul 6
79 °FCloudy.12 mph74%29.88 "Hg10 mi
2:53 PM81 °FThunderstorms. Cloudy.18 mph60%29.90 "Hg10 mi
1:53 PM88 °FMore clouds than sun.16 mph52%29.88 "Hg10 mi
12:53 PM86 °FPartly sunny.17 mph55%29.89 "Hg10 mi
11:53 AM84 °FPartly sunny.17 mph59%29.92 "Hg9 mi
10:53 AM83 °FPartly sunny.14 mph65%29.94 "Hg9 mi
9:53 AM80 °FPartly sunny.12 mph71%29.94 "Hg8 mi
8:53 AM77 °FPassing clouds.10 mph71%29.95 "Hg7 mi
7:53 AM74 °FScattered clouds.9 mph76%29.96 "Hg7 mi
6:53 AM72 °FScattered clouds.6 mph81%29.97 "Hg6 mi
5:53 AM71 °FPassing clouds.8 mph81%29.96 "Hg8 mi
4:53 AM71 °FPassing clouds.9 mph81%29.94 "Hg8 mi
3:53 AM71 °FClear.6 mph78%29.97 "Hg9 mi
2:53 AM72 °FClear.3 mph76%29.98 "Hg9 mi
1:53 AM74 °FClear.6 mph69%29.96 "Hg10 mi
12:53 AM74 °FClear.6 mph69%29.97 "Hg10 mi
11:53 PM
Sun, Jul 5
75 °FClear.6 mph64%29.97 "Hg10 mi
10:53 PM77 °FClear.8 mph60%29.98 "Hg10 mi
9:53 PM79 °FClear.6 mph54%29.99 "Hg10 mi
8:53 PM81 °FSunny.7 mph51%29.98 "Hg10 mi
7:53 PM82 °FSunny.8 mph48%29.98 "Hg10 mi
6:53 PM83 °FPassing clouds.9 mph46%29.99 "Hg10 mi
5:53 PM84 °FPassing clouds.10 mph45%30.00 "Hg10 mi
Weather by CustomWeather, © 2015

See weather overviewHow to use our weather pages